Torna al catalogo

STARLINK-36238

AttivoComunicazioniVLEO
NORAD 68563·PAYLOAD·🇺🇸 United States

Lanciato Apr 2, 2026 da Cape Canaveral Space Force Station

Loading…

Prossimi Passaggi (prossime 24 ore)

TLE

AggiornatoSource: CelesTrak SupGP

Epoca: Sep 14, 2026, 20:55 UTC

1 68563C 26070X   26257.87201389  .00025908  00000+0  76522-3 0  2578
2 68563  53.1581 199.7967 0001237  85.4947  15.8293 15.34387302    16

Traccia STARLINK-36238 in tempo reale con AllMySat

Download on the App Store